Airfield :
LOGIN :

Register | Disclaimer

   EN    FR    IT 

 










Legend :    VFR   Marginal VFR   IFR   Intensive IFR   Very Intensive IFR
Visi :
Ceiling :
>= 8 km
>= 3000ft
5 to 8 km
1000 to 3000 ft
1500m to 5 km
500 to 1000 ft
800 to 1500m
200 to 500 ft
< 800m
< 200 ft
Symbols :   Thunderstorms  Fog  Heavy snow  Heavy precipitations  Wind > 20 kt
SIGMETs :     Misc.  Thunderstorms  Icing  Turbulence  Mountain Waves  Volcanic Ashes







- Airport Elevation : 1300 ft
- IATA code : LIG
- Download approach charts


LFBL - Limoges

CURRENT METAR :
  • 162200Z AUTO VRB03KT CAVOK 17/13 Q1024 NOSIG

EXPIRED METARs :
  • 162130Z AUTO VRB02KT CAVOK 17/13 Q1024 NOSIG
  • 162100Z AUTO 11003KT CAVOK 18/13 Q1024 NOSIG
  • 162030Z AUTO 16003KT 120V190 CAVOK 18/13 Q1024 NOSIG
  • 162000Z AUTO 12003KT CAVOK 19/14 Q1024 NOSIG
  • 161930Z AUTO VRB02KT CAVOK 19/14 Q1024 NOSIG

TAF TAF LFBL
Valid from the 16 at 18:00 until the 17 at 18:00 UTC


161700Z 1618/1718 16006KT CAVOK
ATIS : +33 5 55 48 40 37
No reported NOTAMs for that airfield.



MET'MAP, your aeronautical weather chart ! - Copyright ORBIFLY December 2007 - Disclaimer

ORBIFLY MET'MAP TEAM :

Programming & Development : Alexandra Zaïnal
Concept & Development : Baudouin d'Aumeries
Co-Development & Prog : Marc-Olivier Méhu
Technical & hardware support : Manuel Goepfert

Contact : metmap@orbifly.com




SOURCES & CREDITS :

   NOAA